Winter Haven, FL

10:47 PM EDT on August 29, 2016 (GMT -0400)
Winter Haven's-Gilbert

Weather History for KGIF - October, 2011

Change the Weather History Date:

Thursday, October 6, 2011

  Actual Average Record
Temperature  
Mean Temperature 74 °F -  
Max Temperature 84 °F 87 °F 95 °F (1986)
Min Temperature 66 °F 67 °F 53 °F (1979)
Cooling Degree Days 9    
Growing Degree Days 24 (Base 50)    
Moisture  
Dew Point 65 °F    
Average Humidity 73    
Maximum Humidity 93    
Minimum Humidity 51    
Precipitation  
Precipitation 0.03 in - - ()
Sea Level Pressure  
Sea Level Pressure 30.08 in    
Wind  
Wind Speed 8 mph (NE)    
Max Wind Speed 18 mph    
Max Gust Speed 20 mph    
Visibility 10 miles    
Events      
Averages and records for this station are not official NWS values.
T = Trace of Precipitation, MM = Missing Value Source: NWS Daily Summary

Daily Weather History Graph

Daily Weather History Graph

Search for Another Location

Airport or City:

Trip Planner

Search our weather history database for the weather conditions in past years. The results will help you decide how hot, cold, wet, or windy it might be!

Date:

Astronomy

Oct. 06, 2011 Rise Set
Actual Time 7:22 AM EDT 7:07 PM EDT
Civil Twilight 6:58 AM EDT 7:31 PM EDT
Nautical Twilight 6:31 AM EDT 7:58 PM EDT
Astronomical Twilight 6:04 AM EDT 8:25 PM EDT
Moon 3:58 PM EDT (10/6) 2:34 AM EDT (10/6)
Length of Visible Light 12h 32m
Length of Day
11h 45m
Waxing Gibbous, 75% of the Moon is Illuminated
Oct 6
Waxing Gibbous
Oct 11
Full
Oct 19
Last Quarter
Oct 26
New
Nov 2
First Quarter

Hourly Weather History & Observations

Time (EDT) Temp. Heat Index Dew Point Humidity Pressure Visibility Wind Dir Wind Speed Gust Speed Precip Events Conditions
12:53 AM 70.0 °F - 64.0 °F 81% 30.09 in 10.0 mi North 6.9 mph - N/A   Partly Cloudy
1:53 AM 70.0 °F - 64.0 °F 81% 30.09 in 10.0 mi North 5.8 mph - N/A   Overcast
2:53 AM 70.0 °F - 64.0 °F 81% 30.07 in 10.0 mi NNE 4.6 mph - N/A   Mostly Cloudy
3:53 AM 68.0 °F - 64.0 °F 87% 30.07 in 10.0 mi North 8.1 mph - N/A   Partly Cloudy
4:53 AM 68.0 °F - 64.0 °F 87% 30.06 in 10.0 mi North 8.1 mph - N/A   Partly Cloudy
5:53 AM 66.9 °F - 64.0 °F 90% 30.07 in 10.0 mi North 6.9 mph - N/A   Clear
6:53 AM 66.9 °F - 64.9 °F 93% 30.09 in 10.0 mi North 6.9 mph - N/A   Clear
7:53 AM 66.9 °F - 64.9 °F 93% 30.09 in 10.0 mi North 6.9 mph - N/A   Clear
8:53 AM 70.0 °F - 66.0 °F 87% 30.10 in 10.0 mi North 6.9 mph - N/A   Partly Cloudy
9:53 AM 77.0 °F - 66.0 °F 69% 30.11 in 10.0 mi NNE 5.8 mph - N/A   Overcast
10:53 AM 80.1 °F 81.2 °F 62.1 °F 54% 30.11 in 10.0 mi NE 12.7 mph - N/A   Mostly Cloudy
11:53 AM 82.0 °F 83.1 °F 63.0 °F 52% 30.12 in 10.0 mi ENE 13.8 mph 18.4 mph N/A   Overcast
12:53 PM 82.9 °F 84.0 °F 63.0 °F 51% 30.09 in 10.0 mi ENE 11.5 mph 19.6 mph N/A   Mostly Cloudy
1:53 PM 82.0 °F 84.1 °F 66.0 °F 58% 30.08 in 10.0 mi ESE 8.1 mph - N/A   Scattered Clouds
2:53 PM 80.1 °F 82.7 °F 68.0 °F 67% 30.06 in 10.0 mi ENE 10.4 mph - 0.02 in   Mostly Cloudy
3:53 PM 82.0 °F 84.1 °F 66.0 °F 58% 30.05 in 10.0 mi ENE 9.2 mph - 0.01 in   Mostly Cloudy
4:53 PM 82.0 °F 83.4 °F 64.0 °F 54% 30.05 in 10.0 mi ENE 13.8 mph - N/A   Mostly Cloudy
5:53 PM 80.1 °F 81.5 °F 63.0 °F 56% 30.06 in 10.0 mi ENE 18.4 mph - N/A   Partly Cloudy
6:53 PM 78.1 °F - 64.0 °F 62% 30.06 in 10.0 mi ENE 10.4 mph - N/A   Clear
8:53 PM 73.9 °F - 64.9 °F 73% 30.10 in 10.0 mi NE 9.2 mph - N/A   Clear
9:53 PM 72.0 °F - 64.9 °F 78% 30.11 in 10.0 mi NE 4.6 mph - N/A   Clear
10:53 PM 70.0 °F - 64.9 °F 84% 30.11 in 10.0 mi NE 6.9 mph - N/A   Clear
11:53 PM 70.0 °F - 64.9 °F 84% 30.11 in 10.0 mi NNE 5.8 mph - N/A   Clear